TimeCDT,TemperatureF,Dew PointF,Humidity,Sea Level PressureIn,VisibilityMPH,Wind Direction,Wind SpeedMPH,Gust SpeedMPH,PrecipitationIn,Events,Conditions,WindDirDegrees,DateUTC
12:15 AM,69.8,60.8,73,29.84,10.0,Calm,Calm,-,N/A,,Clear,0,2012-10-25 05:15:00
12:35 AM,69.8,60.8,73,29.83,10.0,ESE,3.5,-,N/A,,Clear,120,2012-10-25 05:35:00
12:55 AM,69.8,60.8,73,29.82,10.0,East,4.6,-,N/A,,Clear,100,2012-10-25 05:55:00
1:15 AM,69.8,60.8,73,29.82,10.0,SE,4.6,-,N/A,,Clear,130,2012-10-25 06:15:00
1:35 AM,71.6,62.6,73,29.81,10.0,SE,5.8,-,N/A,,Clear,140,2012-10-25 06:35:00
1:55 AM,71.6,62.6,73,29.81,10.0,SE,4.6,-,N/A,,Clear,140,2012-10-25 06:55:00
2:35 AM,69.8,60.8,73,29.82,10.0,ESE,4.6,-,N/A,,Overcast,110,2012-10-25 07:35:00
2:55 AM,69.8,62.6,78,29.83,10.0,Calm,Calm,-,N/A,,Overcast,0,2012-10-25 07:55:00
3:15 AM,69.8,62.6,78,29.83,10.0,East,3.5,-,N/A,,Overcast,90,2012-10-25 08:15:00
3:35 AM,68.0,62.6,83,29.83,10.0,ESE,4.6,-,N/A,,Mostly Cloudy,110,2012-10-25 08:35:00
3:55 AM,68.0,60.8,78,29.84,10.0,Calm,Calm,-,N/A,,Scattered Clouds,0,2012-10-25 08:55:00
4:15 AM,66.2,60.8,83,29.84,10.0,Calm,Calm,-,N/A,,Scattered Clouds,0,2012-10-25 09:15:00
4:35 AM,69.8,62.6,78,29.84,10.0,South,8.1,-,N/A,,Mostly Cloudy,180,2012-10-25 09:35:00
4:55 AM,71.6,62.6,73,29.84,10.0,South,8.1,-,N/A,,Mostly Cloudy,170,2012-10-25 09:55:00
5:15 AM,71.6,62.6,73,29.84,10.0,South,10.4,-,N/A,,Scattered Clouds,180,2012-10-25 10:15:00
5:35 AM,71.6,62.6,73,29.84,10.0,South,8.1,-,N/A,,Mostly Cloudy,180,2012-10-25 10:35:00
5:55 AM,71.6,62.6,73,29.84,10.0,South,10.4,-,N/A,,Mostly Cloudy,170,2012-10-25 10:55:00
6:15 AM,71.6,62.6,73,29.84,10.0,South,8.1,-,N/A,,Scattered Clouds,170,2012-10-25 11:15:00
6:35 AM,71.6,62.6,73,29.85,10.0,South,8.1,-,N/A,,Mostly Cloudy,180,2012-10-25 11:35:00
6:55 AM,71.6,62.6,73,29.85,10.0,South,9.2,-,N/A,,Overcast,180,2012-10-25 11:55:00
7:15 AM,71.6,62.6,73,29.85,10.0,South,11.5,-,N/A,,Overcast,170,2012-10-25 12:15:00
7:35 AM,71.6,62.6,73,29.85,10.0,South,8.1,-,N/A,,Overcast,190,2012-10-25 12:35:00
7:55 AM,71.6,62.6,73,29.86,10.0,South,6.9,-,N/A,,Mostly Cloudy,180,2012-10-25 12:55:00
8:15 AM,71.6,62.6,73,29.85,10.0,SSE,5.8,-,N/A,,Scattered Clouds,160,2012-10-25 13:15:00
8:55 AM,73.4,64.4,73,29.86,10.0,South,5.8,-,N/A,,Clear,180,2012-10-25 13:55:00
9:15 AM,73.4,64.4,73,29.86,10.0,South,8.1,-,N/A,,Clear,180,2012-10-25 14:15:00
9:35 AM,75.2,64.4,69,29.87,10.0,South,9.2,-,N/A,,Mostly Cloudy,180,2012-10-25 14:35:00
9:55 AM,75.2,64.4,69,29.87,10.0,South,10.4,19.6,N/A,,Mostly Cloudy,190,2012-10-25 14:55:00
10:15 AM,73.4,62.6,69,29.88,10.0,SSW,11.5,-,N/A,,Overcast,210,2012-10-25 15:15:00
10:55 AM,73.4,62.6,69,29.89,10.0,SW,10.4,-,N/A,,Overcast,220,2012-10-25 15:55:00
11:15 AM,73.4,62.6,69,29.89,10.0,SW,9.2,-,N/A,,Overcast,220,2012-10-25 16:15:00
11:35 AM,75.2,62.6,65,29.89,10.0,SW,10.4,-,N/A,,Mostly Cloudy,220,2012-10-25 16:35:00
11:55 AM,73.4,62.6,69,29.89,10.0,SW,10.4,-,N/A,,Overcast,220,2012-10-25 16:55:00
12:15 PM,73.4,62.6,69,29.89,10.0,SW,12.7,19.6,N/A,,Overcast,230,2012-10-25 17:15:00
12:35 PM,73.4,62.6,69,29.88,10.0,SW,10.4,-,N/A,,Overcast,230,2012-10-25 17:35:00
1:15 PM,64.4,59.0,83,29.91,7.0,NW,18.4,27.6,N/A,Rain,Light Rain,310,2012-10-25 18:15:00
1:35 PM,59.0,55.4,88,29.93,10.0,NW,17.3,28.8,N/A,Rain,Rain,310,2012-10-25 18:35:00
1:55 PM,55.4,53.6,94,29.95,7.0,NNW,16.1,19.6,0.02,,Heavy Drizzle,330,2012-10-25 18:55:00
2:15 PM,55.4,51.8,88,29.96,7.0,NW,13.8,20.7,0.01,Rain,Light Rain,320,2012-10-25 19:15:00
2:35 PM,53.6,51.8,94,29.97,10.0,NNW,12.7,19.6,0.01,,Overcast,330,2012-10-25 19:35:00
2:55 PM,53.6,50.0,88,29.98,10.0,NNW,10.4,21.9,0.01,,Overcast,330,2012-10-25 19:55:00
3:15 PM,53.6,46.4,77,29.99,10.0,NNW,15.0,24.2,N/A,Rain,Rain,330,2012-10-25 20:15:00
3:35 PM,51.8,46.4,82,30.00,10.0,NW,15.0,20.7,N/A,,Drizzle,320,2012-10-25 20:35:00
3:55 PM,51.8,48.2,88,30.01,10.0,NNW,11.5,16.1,N/A,,Overcast,330,2012-10-25 20:55:00
4:15 PM,51.8,46.4,82,30.02,10.0,NNW,17.3,21.9,N/A,,Overcast,330,2012-10-25 21:15:00
4:35 PM,51.8,44.6,76,30.03,10.0,North,13.8,-,N/A,,Overcast,350,2012-10-25 21:35:00
4:55 PM,51.8,44.6,76,30.04,10.0,NNW,16.1,20.7,N/A,,Overcast,340,2012-10-25 21:55:00
5:15 PM,51.8,44.6,76,30.05,10.0,North,13.8,18.4,N/A,,Overcast,360,2012-10-25 22:15:00
5:35 PM,51.8,44.6,76,30.05,10.0,North,10.4,17.3,N/A,,Overcast,350,2012-10-25 22:35:00
5:55 PM,51.8,42.8,71,30.06,10.0,North,12.7,17.3,N/A,,Overcast,350,2012-10-25 22:55:00
6:15 PM,50.0,42.8,76,30.07,10.0,North,13.8,19.6,N/A,,Overcast,350,2012-10-25 23:15:00
6:35 PM,50.0,42.8,76,30.08,10.0,NNW,13.8,18.4,N/A,,Overcast,340,2012-10-25 23:35:00
6:55 PM,50.0,42.8,76,30.09,10.0,NNW,8.1,-,N/A,,Overcast,340,2012-10-25 23:55:00
7:15 PM,50.0,42.8,76,30.10,10.0,North,11.5,-,N/A,,Overcast,350,2012-10-26 00:15:00
7:35 PM,50.0,42.8,76,30.11,10.0,NNW,17.3,25.3,N/A,,Overcast,340,2012-10-26 00:35:00
8:15 PM,50.0,41.0,71,30.14,10.0,North,13.8,20.7,N/A,,Overcast,350,2012-10-26 01:15:00
8:35 PM,50.0,41.0,71,30.14,10.0,North,9.2,-,N/A,,Overcast,350,2012-10-26 01:35:00
8:55 PM,50.0,41.0,71,30.15,10.0,North,9.2,16.1,N/A,,Overcast,360,2012-10-26 01:55:00
9:15 PM,50.0,41.0,71,30.15,10.0,North,6.9,17.3,N/A,,Overcast,360,2012-10-26 02:15:00
9:35 PM,50.0,41.0,71,30.16,10.0,North,8.1,-,N/A,,Overcast,360,2012-10-26 02:35:00
9:55 PM,50.0,39.2,66,30.16,10.0,North,10.4,-,N/A,,Overcast,350,2012-10-26 02:55:00
10:15 PM,50.0,39.2,66,30.16,10.0,North,6.9,-,N/A,,Overcast,350,2012-10-26 03:15:00
10:35 PM,50.0,39.2,66,30.16,10.0,North,9.2,-,N/A,,Overcast,350,2012-10-26 03:35:00
11:15 PM,48.2,37.4,66,30.17,10.0,North,10.4,19.6,N/A,,Overcast,350,2012-10-26 04:15:00
11:35 PM,48.2,39.2,71,30.17,10.0,North,5.8,-,N/A,,Mostly Cloudy,360,2012-10-26 04:35:00
11:55 PM,48.2,37.4,66,30.17,10.0,NNE,8.1,-,N/A,,Overcast,20,2012-10-26 04:55:00